• Em Portugal
  • Lista de países
  • Para 7 dias
  • Temperatura da água
  • Mapas de satélite
  • Mapa do tempo
  • Widgets de tempo
  • user-avatar
    Iniciar Sessão

    Previsão horária em Biratnagar

    Hoje, 23 Junho, Sábado

    Tempo Temperatura Precipitação Vento Pressão Humidade
    00:00 +31°C° 0 mm 2 m/s 746 mmHg 72%
    01:00 +31°C° 0,4 mm 3 m/s 746 mmHg 73%
    02:00 +31°C° 0,4 mm 3 m/s 746 mmHg 74%
    03:00 +30°C° 0,4 mm 3 m/s 745 mmHg 75%
    04:00 +30°C° 0,3 mm 3 m/s 746 mmHg 76%
    05:00 +30°C° 0,3 mm 3 m/s 746 mmHg 77%
    06:00 +30°C° 0 mm 2 m/s 746 mmHg 79%
    07:00 +31°C° 0,6 mm 3 m/s 746 mmHg 74%
    08:00 +34°C° 0,6 mm 3 m/s 746 mmHg 68%
    09:00 +35°C° 0,6 mm 4 m/s 746 mmHg 63%
    10:00 +36°C° 0,1 mm 4 m/s 746 mmHg 59%
    11:00 +37°C° 0,1 mm 3 m/s 745 mmHg 56%
    12:00 +38°C° 0,1 mm 3 m/s 745 mmHg 52%
    13:00 +39°C° 0,1 mm 3 m/s 744 mmHg 51%
    14:00 +39°C° 0,1 mm 3 m/s 744 mmHg 51%
    15:00 +39°C° 0,1 mm 2 m/s 743 mmHg 50%
    16:00 +39°C° 0,4 mm 2 m/s 743 mmHg 52%
    17:00 +38°C° 0,4 mm 2 m/s 743 mmHg 54%
    18:00 +38°C° 0,4 mm 2 m/s 743 mmHg 56%
    19:00 +37°C° 0,6 mm 3 m/s 743 mmHg 60%
    20:00 +35°C° 0,6 mm 3 m/s 743 mmHg 64%
    21:00 +34°C° 0,6 mm 3 m/s 743 mmHg 68%
    22:00 +34°C° 1,4 mm 3 m/s 743 mmHg 71%
    23:00 +33°C° 1,4 mm 3 m/s 744 mmHg 75%

    Amanhã, 24 Junho, Domingo

    Tempo Temperatura Precipitação Vento Pressão Humidade
    00:00 +31°C° 1,4 mm 3 m/s 744 mmHg 78%
    01:00 +32°C° 2,1 mm 4 m/s 743 mmHg 79%
    02:00 +30°C° 2,1 mm 4 m/s 743 mmHg 81%
    03:00 +30°C° 2,1 mm 4 m/s 743 mmHg 82%
    04:00 +30°C° 2,7 mm 4 m/s 743 mmHg 83%
    05:00 +30°C° 2,7 mm 4 m/s 743 mmHg 85%
    06:00 +29°C° 2,7 mm 4 m/s 743 mmHg 86%
    07:00 +30°C° 0,6 mm 4 m/s 743 mmHg 83%
    08:00 +32°C° 0,6 mm 4 m/s 744 mmHg 80%
    09:00 +33°C° 0,6 mm 4 m/s 744 mmHg 77%
    10:00 +34°C° 0,4 mm 4 m/s 744 mmHg 73%
    11:00 +35°C° 0,4 mm 4 m/s 744 mmHg 70%
    12:00 +36°C° 0,4 mm 4 m/s 744 mmHg 66%
    13:00 +36°C° 1 mm 4 m/s 743 mmHg 66%
    14:00 +36°C° 1 mm 4 m/s 743 mmHg 65%
    15:00 +37°C° 1 mm 4 m/s 742 mmHg 64%
    16:00 +36°C° 0,4 mm 4 m/s 742 mmHg 68%
    17:00 +35°C° 0,4 mm 5 m/s 742 mmHg 72%
    18:00 +34°C° 0,4 mm 5 m/s 742 mmHg 76%
    19:00 +33°C° 0,6 mm 5 m/s 743 mmHg 78%
    20:00 +32°C° 0,6 mm 5 m/s 743 mmHg 80%
    21:00 +30°C° 0,6 mm 5 m/s 743 mmHg 82%
    22:00 +30°C° 1,2 mm 5 m/s 743 mmHg 84%
    23:00 +30°C° 1,2 mm 5 m/s 744 mmHg 86%

    Depois de amanhã, 25 Junho, Segunda-feira

    Tempo Temperatura Precipitação Vento Pressão Humidade
    00:00 +30°C° 1,2 mm 5 m/s 744 mmHg 87%
    01:00 +29°C° 2 mm 4 m/s 743 mmHg 88%
    02:00 +29°C° 2 mm 4 m/s 743 mmHg 89%
    03:00 +29°C° 2 mm 4 m/s 743 mmHg 90%
    04:00 +29°C° 3,1 mm 4 m/s 743 mmHg 91%
    05:00 +29°C° 3,1 mm 4 m/s 743 mmHg 91%
    06:00 +28°C° 3,1 mm 3 m/s 743 mmHg 92%
    07:00 +29°C° 3,8 mm 3 m/s 743 mmHg 90%
    08:00 +29°C° 3,8 mm 3 m/s 744 mmHg 88%
    09:00 +30°C° 3,8 mm 3 m/s 744 mmHg 86%
    10:00 +30°C° 2,5 mm 3 m/s 744 mmHg 87%
    11:00 +30°C° 2,5 mm 3 m/s 744 mmHg 87%
    12:00 +30°C° 2,5 mm 3 m/s 744 mmHg 87%
    13:00 +31°C° 0,5 mm 3 m/s 744 mmHg 85%
    14:00 +32°C° 0,5 mm 4 m/s 743 mmHg 83%
    15:00 +32°C° 0,5 mm 4 m/s 743 mmHg 80%
    16:00 +31°C° 0,2 mm 3 m/s 742 mmHg 81%
    17:00 +31°C° 0,2 mm 3 m/s 742 mmHg 81%
    18:00 +31°C° 0,2 mm 3 m/s 742 mmHg 82%
    19:00 +31°C° 0,3 mm 3 m/s 742 mmHg 84%
    20:00 +30°C° 0,3 mm 3 m/s 743 mmHg 87%
    21:00 +29°C° 0,3 mm 3 m/s 743 mmHg 89%
    22:00 +29°C° 0,4 mm 3 m/s 743 mmHg 88%
    23:00 +29°C° 0,4 mm 3 m/s 743 mmHg 87%

    26 Junho, Terça-feira

    Tempo Temperatura Precipitação Vento Pressão Humidade
    00:00 +29°C° 0,4 mm 3 m/s 743 mmHg 86%
    01:00 +29°C° 1,9 mm 3 m/s 743 mmHg 87%
    02:00 +29°C° 1,9 mm 3 m/s 743 mmHg 88%
    03:00 +28°C° 1,9 mm 3 m/s 743 mmHg 88%
    04:00 +28°C° 2,4 mm 3 m/s 743 mmHg 89%
    05:00 +28°C° 2,4 mm 3 m/s 743 mmHg 89%
    06:00 +28°C° 2,4 mm 4 m/s 743 mmHg 89%
    07:00 +29°C° 0,5 mm 4 m/s 743 mmHg 84%
    08:00 +32°C° 0,5 mm 4 m/s 744 mmHg 80%
    09:00 +33°C° 0,5 mm 4 m/s 744 mmHg 76%
    10:00 +34°C° 0,8 mm 4 m/s 744 mmHg 72%
    11:00 +34°C° 0,8 mm 4 m/s 744 mmHg 69%
    12:00 +35°C° 0,8 mm 3 m/s 744 mmHg 66%
    13:00 +35°C° 1,2 mm 3 m/s 744 mmHg 70%
    14:00 +34°C° 1,2 mm 2 m/s 743 mmHg 73%
    15:00 +32°C° 1,2 mm 2 m/s 743 mmHg 76%
    16:00 +32°C° 0,5 mm 2 m/s 743 mmHg 77%
    17:00 +32°C° 0,5 mm 2 m/s 743 mmHg 79%
    18:00 +33°C° 0,5 mm 3 m/s 743 mmHg 80%
    19:00 +31°C° 0,2 mm 3 m/s 743 mmHg 81%
    20:00 +31°C° 0,2 mm 3 m/s 744 mmHg 82%
    21:00 +30°C° 0,2 mm 3 m/s 744 mmHg 84%
    22:00 +30°C° 1 mm 3 m/s 744 mmHg 84%
    23:00 +30°C° 1 mm 3 m/s 745 mmHg 84%

    27 Junho, Quarta-feira

    Tempo Temperatura Precipitação Vento Pressão Humidade
    00:00 +30°C° 1 mm 4 m/s 745 mmHg 84%
    01:00 +30°C° 1,6 mm 3 m/s 744 mmHg 84%
    02:00 +30°C° 1,6 mm 3 m/s 744 mmHg 84%
    03:00 +29°C° 1,6 mm 3 m/s 744 mmHg 84%
    04:00 +29°C° 1,8 mm 3 m/s 744 mmHg 85%
    05:00 +29°C° 1,8 mm 3 m/s 744 mmHg 86%
    06:00 +29°C° 1,8 mm 4 m/s 744 mmHg 86%
    07:00 +29°C° 5 mm 4 m/s 745 mmHg 87%
    08:00 +29°C° 5 mm 5 m/s 745 mmHg 88%
    09:00 +29°C° 5 mm 5 m/s 746 mmHg 89%
    10:00 +30°C° 2,1 mm 5 m/s 746 mmHg 86%
    11:00 +30°C° 2,1 mm 5 m/s 746 mmHg 83%
    12:00 +32°C° 2,1 mm 6 m/s 746 mmHg 80%
    13:00 +33°C° 0,1 mm 5 m/s 745 mmHg 76%
    14:00 +34°C° 0,1 mm 5 m/s 745 mmHg 71%
    15:00 +35°C° 0,1 mm 5 m/s 744 mmHg 67%
    16:00 +35°C° 0,1 mm 4 m/s 744 mmHg 69%
    17:00 +35°C° 0,1 mm 4 m/s 744 mmHg 70%
    18:00 +34°C° 0,1 mm 4 m/s 744 mmHg 72%
    19:00 +33°C° 1,2 mm 3 m/s 745 mmHg 76%
    20:00 +31°C° 1,2 mm 3 m/s 745 mmHg 80%
    21:00 +30°C° 1,2 mm 3 m/s 746 mmHg 85%
    22:00 +30°C° 1,2 mm 3 m/s 746 mmHg 85%
    23:00 +30°C° 1,2 mm 4 m/s 746 mmHg 86%

    28 Junho, Quinta-feira

    Tempo Temperatura Precipitação Vento Pressão Humidade
    00:00 +30°C° 1,2 mm 4 m/s 746 mmHg 86%
    01:00 +29°C° 0,7 mm 4 m/s 746 mmHg 87%
    02:00 +29°C° 0,7 mm 4 m/s 746 mmHg 87%
    03:00 +29°C° 0,7 mm 4 m/s 745 mmHg 88%
    04:00 +29°C° 0,4 mm 4 m/s 745 mmHg 88%
    05:00 +29°C° 0,4 mm 4 m/s 745 mmHg 89%
    06:00 +29°C° 0,4 mm 4 m/s 745 mmHg 89%
    07:00 +29°C° 0,5 mm 4 m/s 746 mmHg 86%
    08:00 +30°C° 0,5 mm 4 m/s 746 mmHg 83%
    09:00 +32°C° 0,5 mm 5 m/s 746 mmHg 81%
    10:00 +33°C° 0,7 mm 5 m/s 746 mmHg 77%
    11:00 +33°C° 0,7 mm 5 m/s 746 mmHg 74%
    12:00 +34°C° 0,7 mm 5 m/s 746 mmHg 71%
    13:00 +35°C° 0,1 mm 5 m/s 746 mmHg 68%
    14:00 +35°C° 0,1 mm 5 m/s 745 mmHg 65%
    15:00 +36°C° 0,1 mm 6 m/s 745 mmHg 62%
    16:00 +35°C° 0 mm 5 m/s 745 mmHg 65%
    17:00 +35°C° 0 mm 5 m/s 744 mmHg 68%
    18:00 +34°C° 0 mm 4 m/s 744 mmHg 70%
    19:00 +33°C° 0,7 mm 4 m/s 745 mmHg 74%
    20:00 +32°C° 0,7 mm 4 m/s 746 mmHg 78%
    21:00 +30°C° 0,7 mm 4 m/s 746 mmHg 82%
    22:00 +30°C° 1 mm 4 m/s 746 mmHg 82%
    23:00 +30°C° 1 mm 4 m/s 746 mmHg 82%
    Mostrar mais